• In Deutschland
  • Länderverzeichnis
  • Für 7 Tage
  • Wassertemperatur
  • Satellitenkarten
  • Wetterkarte
  • Widgets
  • user-avatar
    Anmelden

    Stündliche Wetter Nova Milanese

    Heute, 19 Januar, Freitag

    Zeit Temperatur Niederschläge Wind Luftdruck Luftfeuchtigkeit
    00:00 +5°C° 0 mm 1 m/S 742 mmHg 73%
    01:00 +5°C° 0 mm 1 m/S 741 mmHg 74%
    02:00 +5°C° 0 mm 1 m/S 741 mmHg 74%
    03:00 +5°C° 0 mm 1 m/S 740 mmHg 75%
    04:00 +5°C° 0 mm 1 m/S 740 mmHg 76%
    05:00 +5°C° 0 mm 1 m/S 740 mmHg 76%
    06:00 +5°C° 0 mm 1 m/S 740 mmHg 77%
    07:00 +5°C° 0 mm 1 m/S 740 mmHg 78%
    08:00 +5°C° 0 mm 1 m/S 740 mmHg 76%
    09:00 +6°C° 0 mm 1 m/S 740 mmHg 75%
    10:00 +7°C° 0 mm 1 m/S 740 mmHg 73%
    11:00 +8°C° 0 mm 1 m/S 740 mmHg 70%
    12:00 +9°C° 0 mm 2 m/S 740 mmHg 66%
    13:00 +10°C° 0 mm 2 m/S 740 mmHg 63%
    14:00 +10°C° 0 mm 2 m/S 741 mmHg 63%
    15:00 +9°C° 0 mm 2 m/S 741 mmHg 62%
    16:00 +9°C° 0 mm 2 m/S 741 mmHg 62%
    17:00 +8°C° 0 mm 2 m/S 742 mmHg 61%
    18:00 +7°C° 0 mm 3 m/S 743 mmHg 60%
    19:00 +5°C° 0 mm 3 m/S 744 mmHg 60%
    20:00 +5°C° 0 mm 2 m/S 744 mmHg 59%
    21:00 +5°C° 0 mm 2 m/S 744 mmHg 59%
    22:00 +4°C° 0 mm 2 m/S 744 mmHg 58%
    23:00 +4°C° 0 mm 2 m/S 744 mmHg 58%

    Morgen, 20 Januar, Samstag

    Zeit Temperatur Niederschläge Wind Luftdruck Luftfeuchtigkeit
    00:00 +4°C° 0 mm 2 m/S 745 mmHg 58%
    01:00 +4°C° 0 mm 1 m/S 745 mmHg 58%
    02:00 +4°C° 0 mm 1 m/S 745 mmHg 59%
    03:00 +4°C° 0 mm 1 m/S 745 mmHg 59%
    04:00 +4°C° 0 mm 1 m/S 745 mmHg 60%
    05:00 +4°C° 0 mm 1 m/S 745 mmHg 61%
    06:00 +3°C° 0 mm 1 m/S 745 mmHg 62%
    07:00 +3°C° 0 mm 1 m/S 745 mmHg 63%
    08:00 +4°C° 0 mm 1 m/S 745 mmHg 62%
    09:00 +5°C° 0 mm 1 m/S 745 mmHg 60%
    10:00 +5°C° 0 mm 1 m/S 745 mmHg 58%
    11:00 +6°C° 0 mm 1 m/S 744 mmHg 57%
    12:00 +7°C° 0 mm 1 m/S 743 mmHg 56%
    13:00 +7°C° 0 mm 1 m/S 742 mmHg 55%
    14:00 +7°C° 0 mm 1 m/S 741 mmHg 59%
    15:00 +7°C° 0 mm 1 m/S 741 mmHg 63%
    16:00 +7°C° 0 mm 1 m/S 740 mmHg 66%
    17:00 +6°C° 0,2 mm 1 m/S 739 mmHg 71%
    18:00 +5°C° 0,2 mm 1 m/S 739 mmHg 76%
    19:00 +4°C° 0,2 mm 1 m/S 739 mmHg 80%
    20:00 +4°C° 0,2 mm 1 m/S 739 mmHg 81%
    21:00 +4°C° 0,2 mm 1 m/S 739 mmHg 82%
    22:00 +4°C° 0,2 mm 1 m/S 739 mmHg 82%
    23:00 +4°C° 0,1 mm 1 m/S 740 mmHg 82%

    übermorgen, 21 Januar, Sonntag

    Zeit Temperatur Niederschläge Wind Luftdruck Luftfeuchtigkeit
    00:00 +4°C° 0,1 mm 1 m/S 740 mmHg 81%
    01:00 +4°C° 0,1 mm 1 m/S 740 mmHg 80%
    02:00 +3°C° 0 mm 2 m/S 740 mmHg 80%
    03:00 +3°C° 0 mm 2 m/S 740 mmHg 79%
    04:00 +3°C° 0 mm 2 m/S 741 mmHg 78%
    05:00 +3°C° 0 mm 2 m/S 741 mmHg 78%
    06:00 +3°C° 0 mm 2 m/S 742 mmHg 77%
    07:00 +3°C° 0 mm 2 m/S 742 mmHg 77%
    08:00 +4°C° 0 mm 2 m/S 742 mmHg 73%
    09:00 +5°C° 0 mm 2 m/S 743 mmHg 70%
    10:00 +5°C° 0 mm 2 m/S 743 mmHg 66%
    11:00 +7°C° 0 mm 2 m/S 743 mmHg 63%
    12:00 +8°C° 0 mm 2 m/S 743 mmHg 60%
    13:00 +9°C° 0 mm 2 m/S 743 mmHg 56%
    14:00 +9°C° 0 mm 2 m/S 744 mmHg 59%
    15:00 +10°C° 0 mm 1 m/S 744 mmHg 62%
    16:00 +9°C° 0 mm 1 m/S 744 mmHg 65%
    17:00 +8°C° 0,1 mm 1 m/S 744 mmHg 68%
    18:00 +8°C° 0,1 mm 1 m/S 745 mmHg 72%
    19:00 +6°C° 0,1 mm 2 m/S 745 mmHg 75%
    20:00 +5°C° 0,2 mm 2 m/S 745 mmHg 76%
    21:00 +6°C° 0,2 mm 1 m/S 745 mmHg 77%
    22:00 +6°C° 0,2 mm 1 m/S 746 mmHg 77%
    23:00 +6°C° 0,1 mm 1 m/S 746 mmHg 77%

    22 Januar, Montag

    Zeit Temperatur Niederschläge Wind Luftdruck Luftfeuchtigkeit
    00:00 +5°C° 0,1 mm 1 m/S 746 mmHg 77%
    01:00 +5°C° 0,1 mm 1 m/S 746 mmHg 77%
    02:00 +5°C° 0 mm 1 m/S 746 mmHg 76%
    03:00 +5°C° 0 mm 1 m/S 746 mmHg 76%
    04:00 +4°C° 0 mm 1 m/S 746 mmHg 75%
    05:00 +4°C° 0 mm 1 m/S 746 mmHg 75%
    06:00 +4°C° 0 mm 1 m/S 746 mmHg 75%
    07:00 +4°C° 0 mm 1 m/S 746 mmHg 74%
    08:00 +5°C° 0 mm 1 m/S 746 mmHg 72%
    09:00 +5°C° 0 mm 1 m/S 747 mmHg 70%
    10:00 +6°C° 0 mm 1 m/S 747 mmHg 67%
    11:00 +7°C° 0 mm 1 m/S 747 mmHg 65%
    12:00 +8°C° 0 mm 1 m/S 747 mmHg 63%
    13:00 +9°C° 0 mm 1 m/S 747 mmHg 61%
    14:00 +9°C° 0 mm 1 m/S 747 mmHg 62%
    15:00 +9°C° 0 mm 1 m/S 746 mmHg 64%
    16:00 +9°C° 0 mm 1 m/S 746 mmHg 66%
    17:00 +8°C° 0 mm 1 m/S 747 mmHg 67%
    18:00 +7°C° 0 mm 1 m/S 747 mmHg 68%
    19:00 +7°C° 0 mm 1 m/S 747 mmHg 69%
    20:00 +7°C° 0 mm 1 m/S 747 mmHg 69%
    21:00 +7°C° 0 mm 1 m/S 748 mmHg 70%
    22:00 +6°C° 0 mm 1 m/S 748 mmHg 71%
    23:00 +6°C° 0 mm 1 m/S 748 mmHg 72%

    23 Januar, Dienstag

    Zeit Temperatur Niederschläge Wind Luftdruck Luftfeuchtigkeit
    00:00 +6°C° 0 mm 1 m/S 748 mmHg 73%
    01:00 +6°C° 0 mm 1 m/S 748 mmHg 75%
    02:00 +6°C° 0 mm 1 m/S 748 mmHg 76%
    03:00 +6°C° 0 mm 1 m/S 748 mmHg 77%
    04:00 +6°C° 0 mm 1 m/S 748 mmHg 78%
    05:00 +6°C° 0 mm 1 m/S 749 mmHg 78%
    06:00 +6°C° 0 mm 1 m/S 749 mmHg 79%
    07:00 +6°C° 0 mm 1 m/S 750 mmHg 80%
    08:00 +7°C° 0 mm 1 m/S 750 mmHg 77%
    09:00 +8°C° 0 mm 1 m/S 751 mmHg 75%
    10:00 +8°C° 0 mm 1 m/S 752 mmHg 72%
    11:00 +10°C° 0 mm 1 m/S 751 mmHg 69%
    12:00 +11°C° 0 mm 1 m/S 751 mmHg 66%
    13:00 +12°C° 0 mm 1 m/S 751 mmHg 64%
    14:00 +12°C° 0 mm 1 m/S 751 mmHg 66%
    15:00 +12°C° 0 mm 1 m/S 752 mmHg 68%
    16:00 +12°C° 0 mm 1 m/S 752 mmHg 70%
    17:00 +11°C° 0 mm 1 m/S 752 mmHg 73%
    18:00 +9°C° 0 mm 1 m/S 753 mmHg 75%
    19:00 +8°C° 0 mm 1 m/S 754 mmHg 78%
    20:00 +8°C° 0 mm 1 m/S 754 mmHg 78%
    21:00 +7°C° 0 mm 1 m/S 754 mmHg 78%
    22:00 +7°C° 0 mm 1 m/S 755 mmHg 78%
    23:00 +7°C° 0 mm 1 m/S 755 mmHg 77%

    24 Januar, Mittwoch

    Zeit Temperatur Niederschläge Wind Luftdruck Luftfeuchtigkeit
    00:00 +7°C° 0 mm 1 m/S 755 mmHg 77%
    01:00 +6°C° 0 mm 1 m/S 755 mmHg 76%
    02:00 +6°C° 0 mm 1 m/S 754 mmHg 76%
    03:00 +6°C° 0 mm 1 m/S 754 mmHg 75%
    04:00 +6°C° 0 mm 1 m/S 754 mmHg 75%
    05:00 +6°C° 0 mm 1 m/S 754 mmHg 74%
    06:00 +6°C° 0 mm 1 m/S 754 mmHg 74%
    07:00 +5°C° 0 mm 0 m/S 754 mmHg 74%
    08:00 +6°C° 0 mm 0 m/S 754 mmHg 71%
    09:00 +6°C° 0 mm 0 m/S 754 mmHg 69%
    10:00 +7°C° 0 mm 0 m/S 755 mmHg 67%
    11:00 +9°C° 0 mm 1 m/S 754 mmHg 64%
    12:00 +10°C° 0 mm 1 m/S 754 mmHg 62%
    13:00 +11°C° 0 mm 1 m/S 754 mmHg 59%
    14:00 +11°C° 0 mm 1 m/S 754 mmHg 62%
    15:00 +11°C° 0 mm 1 m/S 754 mmHg 64%
    16:00 +10°C° 0 mm 0 m/S 753 mmHg 66%
    17:00 +9°C° 0 mm 0 m/S 754 mmHg 69%
    18:00 +9°C° 0 mm 1 m/S 754 mmHg 72%
    19:00 +8°C° 0 mm 1 m/S 754 mmHg 75%
    20:00 +8°C° 0 mm 1 m/S 755 mmHg 76%
    21:00 +7°C° 0 mm 1 m/S 755 mmHg 76%
    22:00 +7°C° 0 mm 1 m/S 755 mmHg 77%
    23:00 +7°C° 0 mm 1 m/S 755 mmHg 77%
    Mehr zeigen